Year,Month,Day,Hour,Minute,Value (Times are PST for temperature in C)
2016,09,24,00,00,8.80
2016,09,24,00,01,8.80
2016,09,24,00,02,8.80
2016,09,24,00,03,8.80
2016,09,24,00,04,8.80
2016,09,24,00,05,8.80
2016,09,24,00,06,8.80
2016,09,24,00,07,8.80
2016,09,24,00,08,8.80
2016,09,24,00,09,8.80
2016,09,24,00,10,8.80
2016,09,24,00,11,8.80
2016,09,24,00,12,8.80
2016,09,24,00,13,8.70
2016,09,24,00,14,8.70
2016,09,24,00,15,8.70
2016,09,24,00,16,8.70
2016,09,24,00,17,8.70
2016,09,24,00,18,8.70
2016,09,24,00,19,8.70
2016,09,24,00,20,8.70
2016,09,24,00,21,8.70
2016,09,24,00,22,8.70
2016,09,24,00,23,8.70
2016,09,24,00,24,8.60
2016,09,24,00,25,8.60
2016,09,24,00,26,8.60
2016,09,24,00,27,8.60
2016,09,24,00,28,8.60
2016,09,24,00,29,8.50
2016,09,24,00,30,8.50
2016,09,24,00,31,8.40
2016,09,24,00,32,8.40
2016,09,24,00,33,8.40
2016,09,24,00,34,8.30
2016,09,24,00,35,8.30
2016,09,24,00,36,8.30
2016,09,24,00,37,8.30
2016,09,24,00,38,8.20
2016,09,24,00,39,8.20
2016,09,24,00,40,8.20
2016,09,24,00,41,8.20
2016,09,24,00,42,8.20
2016,09,24,00,43,8.20
2016,09,24,00,44,8.20
2016,09,24,00,45,8.20
2016,09,24,00,46,8.20
2016,09,24,00,47,8.20
2016,09,24,00,48,8.20
2016,09,24,00,49,8.10
2016,09,24,00,50,8.10
2016,09,24,00,51,8.10
2016,09,24,00,52,8.10
2016,09,24,00,53,8.10
2016,09,24,00,54,8.00
2016,09,24,00,55,8.00
2016,09,24,00,56,8.00
2016,09,24,00,57,8.00
2016,09,24,00,58,8.10
2016,09,24,00,59,8.20
2016,09,24,01,00,8.30
2016,09,24,01,01,8.30
2016,09,24,01,02,8.30
2016,09,24,01,03,8.30
2016,09,24,01,04,8.30
2016,09,24,01,05,8.30
2016,09,24,01,06,8.40
2016,09,24,01,07,8.40
2016,09,24,01,08,8.40
2016,09,24,01,09,8.40
2016,09,24,01,10,8.30
2016,09,24,01,11,8.30
2016,09,24,01,12,8.30
2016,09,24,01,13,8.30
2016,09,24,01,14,8.30
2016,09,24,01,15,8.30
2016,09,24,01,16,8.30
2016,09,24,01,17,8.30
2016,09,24,01,18,8.30
2016,09,24,01,19,8.20
2016,09,24,01,20,8.20
2016,09,24,01,21,8.20
2016,09,24,01,22,8.20
2016,09,24,01,23,8.30
2016,09,24,01,24,8.30
2016,09,24,01,25,8.30
2016,09,24,01,26,8.30
2016,09,24,01,27,8.30
2016,09,24,01,28,8.40
2016,09,24,01,29,8.40
2016,09,24,01,30,8.40
2016,09,24,01,31,8.40
2016,09,24,01,32,8.50
2016,09,24,01,33,8.50
2016,09,24,01,34,8.50
2016,09,24,01,35,8.50
2016,09,24,01,36,8.60
2016,09,24,01,37,8.60
2016,09,24,01,38,8.60
2016,09,24,01,39,8.60
2016,09,24,01,40,8.60
2016,09,24,01,41,8.50
2016,09,24,01,42,8.50
2016,09,24,01,43,8.40
2016,09,24,01,44,8.40
2016,09,24,01,45,8.40
2016,09,24,01,46,8.40
2016,09,24,01,47,8.40
2016,09,24,01,48,8.40
2016,09,24,01,49,8.40
2016,09,24,01,50,8.40
2016,09,24,01,51,8.40
2016,09,24,01,52,8.30
2016,09,24,01,53,8.30
2016,09,24,01,54,8.30
2016,09,24,01,55,8.30
2016,09,24,01,56,8.30
2016,09,24,01,57,8.30
2016,09,24,01,58,8.20
2016,09,24,01,59,8.20
2016,09,24,02,00,8.20
2016,09,24,02,01,8.20
2016,09,24,02,02,8.20
2016,09,24,02,03,8.20
2016,09,24,02,04,8.20
2016,09,24,02,05,8.20
2016,09,24,02,06,8.20
2016,09,24,02,07,8.20
2016,09,24,02,08,8.20
2016,09,24,02,09,8.20
2016,09,24,02,10,8.20
2016,09,24,02,11,8.20
2016,09,24,02,12,8.20
2016,09,24,02,13,8.20
2016,09,24,02,14,8.20
2016,09,24,02,15,8.20
2016,09,24,02,16,8.20
2016,09,24,02,17,8.20
2016,09,24,02,18,8.20
2016,09,24,02,19,8.10
2016,09,24,02,20,8.10
2016,09,24,02,21,8.10
2016,09,24,02,22,8.10
2016,09,24,02,23,8.10
2016,09,24,02,24,8.10
2016,09,24,02,25,8.00
2016,09,24,02,26,8.00
2016,09,24,02,27,8.00
2016,09,24,02,28,7.90
2016,09,24,02,29,7.90
2016,09,24,02,30,7.90
2016,09,24,02,31,7.90
2016,09,24,02,32,7.90
2016,09,24,02,33,7.90
2016,09,24,02,34,7.90
2016,09,24,02,35,7.90
2016,09,24,02,36,7.90
2016,09,24,02,37,8.00
2016,09,24,02,38,8.00
2016,09,24,02,39,8.00
2016,09,24,02,40,8.00
2016,09,24,02,41,8.00
2016,09,24,02,42,8.10
2016,09,24,02,43,8.10
2016,09,24,02,44,8.00
2016,09,24,02,45,8.00
2016,09,24,02,46,8.00
2016,09,24,02,47,8.00
2016,09,24,02,48,8.00
2016,09,24,02,49,8.00
2016,09,24,02,50,8.00
2016,09,24,02,51,8.00
2016,09,24,02,52,8.00
2016,09,24,02,53,8.00
2016,09,24,02,54,8.00
2016,09,24,02,55,8.00
2016,09,24,02,56,8.10
2016,09,24,02,57,8.10
2016,09,24,02,58,8.10
2016,09,24,02,59,8.00
2016,09,24,03,00,8.00
2016,09,24,03,01,8.00
2016,09,24,03,02,8.00
2016,09,24,03,03,8.00
2016,09,24,03,04,7.90
2016,09,24,03,05,7.90
2016,09,24,03,06,7.90
2016,09,24,03,07,7.90
2016,09,24,03,08,7.90
2016,09,24,03,09,7.90
2016,09,24,03,10,7.90
2016,09,24,03,11,7.90
2016,09,24,03,12,7.80
2016,09,24,03,13,7.80
2016,09,24,03,14,7.80
2016,09,24,03,15,7.80
2016,09,24,03,16,7.80
2016,09,24,03,17,7.80
2016,09,24,03,18,7.80
2016,09,24,03,19,7.80
2016,09,24,03,20,7.70
2016,09,24,03,21,7.70
2016,09,24,03,22,7.70
2016,09,24,03,23,7.70
2016,09,24,03,24,7.70
2016,09,24,03,25,7.70
2016,09,24,03,26,7.70
2016,09,24,03,27,7.70
2016,09,24,03,28,7.70
2016,09,24,03,29,7.70
2016,09,24,03,30,7.70
2016,09,24,03,31,7.70
2016,09,24,03,32,7.60
2016,09,24,03,33,7.60
2016,09,24,03,34,7.60
2016,09,24,03,35,7.60
2016,09,24,03,36,7.60
2016,09,24,03,37,7.50
2016,09,24,03,38,7.50
2016,09,24,03,39,7.50
2016,09,24,03,40,7.40
2016,09,24,03,41,7.40
2016,09,24,03,42,7.40
2016,09,24,03,43,7.40
2016,09,24,03,44,7.40
2016,09,24,03,45,7.40
2016,09,24,03,46,7.40
2016,09,24,03,47,7.40
2016,09,24,03,48,7.30
2016,09,24,03,49,7.30
2016,09,24,03,50,7.30
2016,09,24,03,51,7.30
2016,09,24,03,52,7.30
2016,09,24,03,53,7.30
2016,09,24,03,54,7.30
2016,09,24,03,55,7.40
2016,09,24,03,56,7.40
2016,09,24,03,57,7.40
2016,09,24,03,58,7.40
2016,09,24,03,59,7.40
2016,09,24,04,00,7.40
2016,09,24,04,01,7.40
2016,09,24,04,02,7.40
2016,09,24,04,03,7.40
2016,09,24,04,04,7.40
2016,09,24,04,05,7.40
2016,09,24,04,06,7.30
2016,09,24,04,07,7.30
2016,09,24,04,08,7.30
2016,09,24,04,09,7.30
2016,09,24,04,10,7.30
2016,09,24,04,11,7.30
2016,09,24,04,12,7.20
2016,09,24,04,13,7.20
2016,09,24,04,14,7.20
2016,09,24,04,15,7.20
2016,09,24,04,16,7.20
2016,09,24,04,17,7.20
2016,09,24,04,18,7.20
2016,09,24,04,19,7.30
2016,09,24,04,20,7.30
2016,09,24,04,21,7.30
2016,09,24,04,22,7.30
2016,09,24,04,23,7.30
2016,09,24,04,24,7.30
2016,09,24,04,25,7.40
2016,09,24,04,26,7.40
2016,09,24,04,27,7.40
2016,09,24,04,28,7.40
2016,09,24,04,29,7.40
2016,09,24,04,30,7.40
2016,09,24,04,31,7.40
2016,09,24,04,32,7.40
2016,09,24,04,33,7.40
2016,09,24,04,34,7.40
2016,09,24,04,35,7.40
2016,09,24,04,36,7.40
2016,09,24,04,37,7.40
2016,09,24,04,38,7.40
2016,09,24,04,39,7.40
2016,09,24,04,40,7.40
2016,09,24,04,41,7.40
2016,09,24,04,42,7.40
2016,09,24,04,43,7.40
2016,09,24,04,44,7.40
2016,09,24,04,45,7.40
2016,09,24,04,46,7.40
2016,09,24,04,47,7.50
2016,09,24,04,48,7.50
2016,09,24,04,49,7.60
2016,09,24,04,50,7.60
2016,09,24,04,51,7.60
2016,09,24,04,52,7.60
2016,09,24,04,53,7.60
2016,09,24,04,54,7.60
2016,09,24,04,55,7.60
2016,09,24,04,56,7.60
2016,09,24,04,57,7.60
2016,09,24,04,58,7.70
2016,09,24,04,59,7.60
2016,09,24,05,00,7.60
2016,09,24,05,01,7.60
2016,09,24,05,02,7.60
2016,09,24,05,03,7.70
2016,09,24,05,04,7.70
2016,09,24,05,05,7.70
2016,09,24,05,06,7.70
2016,09,24,05,07,7.70
2016,09,24,05,08,7.80
2016,09,24,05,09,7.80
2016,09,24,05,10,7.80
2016,09,24,05,11,7.80
2016,09,24,05,12,7.80
2016,09,24,05,13,7.80
2016,09,24,05,14,7.80
2016,09,24,05,15,7.80
2016,09,24,05,16,7.80
2016,09,24,05,17,7.80
2016,09,24,05,18,7.80
2016,09,24,05,19,7.80
2016,09,24,05,20,7.80
2016,09,24,05,21,7.80
2016,09,24,05,22,7.80
2016,09,24,05,23,7.80
2016,09,24,05,24,7.80
2016,09,24,05,25,7.80
2016,09,24,05,26,7.90
2016,09,24,05,27,7.90
2016,09,24,05,28,7.90
2016,09,24,05,29,7.90
2016,09,24,05,30,7.90
2016,09,24,05,31,7.90
2016,09,24,05,32,7.90
2016,09,24,05,33,7.90
2016,09,24,05,34,7.90
2016,09,24,05,35,7.90
2016,09,24,05,36,7.90
2016,09,24,05,37,7.90
2016,09,24,05,38,7.90
2016,09,24,05,39,8.00
2016,09,24,05,40,8.00
2016,09,24,05,41,8.00
2016,09,24,05,42,8.10
2016,09,24,05,43,8.10
2016,09,24,05,44,8.10
2016,09,24,05,45,8.10
2016,09,24,05,46,8.10
2016,09,24,05,47,8.10
2016,09,24,05,48,8.10
2016,09,24,05,49,8.10
2016,09,24,05,50,8.10
2016,09,24,05,51,8.10
2016,09,24,05,52,8.10
2016,09,24,05,53,8.10
2016,09,24,05,54,8.20
2016,09,24,05,55,8.20
2016,09,24,05,56,8.20
2016,09,24,05,57,8.20
2016,09,24,05,58,8.20
2016,09,24,05,59,8.20
2016,09,24,06,00,8.20
2016,09,24,06,01,8.20
2016,09,24,06,02,8.20
2016,09,24,06,03,8.20
2016,09,24,06,04,8.20
2016,09,24,06,05,8.20
2016,09,24,06,06,8.20
2016,09,24,06,07,8.20
2016,09,24,06,08,8.20
2016,09,24,06,09,8.20
2016,09,24,06,10,8.20
2016,09,24,06,11,8.10
2016,09,24,06,12,8.10
2016,09,24,06,13,8.10
2016,09,24,06,14,8.10
2016,09,24,06,15,8.10
2016,09,24,06,16,8.10
2016,09,24,06,17,8.10
2016,09,24,06,18,8.00
2016,09,24,06,19,8.00
2016,09,24,06,20,8.00
2016,09,24,06,21,8.00
2016,09,24,06,22,8.00
2016,09,24,06,23,8.00
2016,09,24,06,24,7.90
2016,09,24,06,25,7.90
2016,09,24,06,26,7.90
2016,09,24,06,27,7.90
2016,09,24,06,28,7.90
2016,09,24,06,29,7.90
2016,09,24,06,30,7.90
2016,09,24,06,31,7.90
2016,09,24,06,32,7.90
2016,09,24,06,33,7.90
2016,09,24,06,34,7.90
2016,09,24,06,35,7.90
2016,09,24,06,36,7.90
2016,09,24,06,37,7.80
2016,09,24,06,38,7.80
2016,09,24,06,39,7.80
2016,09,24,06,40,7.80
2016,09,24,06,41,7.80
2016,09,24,06,42,7.80
2016,09,24,06,43,7.80
2016,09,24,06,44,7.80
2016,09,24,06,45,7.80
2016,09,24,06,46,7.80
2016,09,24,06,47,7.80
2016,09,24,06,48,7.80
2016,09,24,06,49,7.80
2016,09,24,06,50,7.80
2016,09,24,06,51,7.80
2016,09,24,06,52,7.80
2016,09,24,06,53,7.80
2016,09,24,06,54,7.80
2016,09,24,06,55,7.80
2016,09,24,06,56,7.80
2016,09,24,06,57,7.80
2016,09,24,06,58,7.80
2016,09,24,06,59,7.80
2016,09,24,07,00,7.80
2016,09,24,07,01,7.80
2016,09,24,07,02,7.80
2016,09,24,07,03,7.80
2016,09,24,07,04,7.80
2016,09,24,07,05,7.80
2016,09,24,07,06,7.80
2016,09,24,07,07,7.80
2016,09,24,07,08,7.80
2016,09,24,07,09,7.80
2016,09,24,07,10,7.80
2016,09,24,07,11,7.80
2016,09,24,07,12,7.80
2016,09,24,07,13,7.80
2016,09,24,07,14,7.80
2016,09,24,07,15,7.80
2016,09,24,07,16,7.80
2016,09,24,07,17,7.80
2016,09,24,07,18,7.80
2016,09,24,07,19,7.90
2016,09,24,07,20,7.90
2016,09,24,07,21,7.90
2016,09,24,07,22,7.90
2016,09,24,07,23,7.90
2016,09,24,07,24,7.90
2016,09,24,07,25,7.90
2016,09,24,07,26,7.90
2016,09,24,07,27,7.90
2016,09,24,07,28,7.90
2016,09,24,07,29,7.90
2016,09,24,07,30,7.90
2016,09,24,07,31,7.80
2016,09,24,07,32,7.80
2016,09,24,07,33,7.80
2016,09,24,07,34,7.80
2016,09,24,07,35,7.80
2016,09,24,07,36,7.80
2016,09,24,07,37,7.80
2016,09,24,07,38,7.80
2016,09,24,07,39,7.80
2016,09,24,07,40,7.80
2016,09,24,07,41,7.90
2016,09,24,07,42,7.90
2016,09,24,07,43,7.90
2016,09,24,07,44,7.90
2016,09,24,07,45,7.90
2016,09,24,07,46,8.00
2016,09,24,07,47,8.00
2016,09,24,07,48,8.00
2016,09,24,07,49,8.00
2016,09,24,07,50,8.10
2016,09,24,07,51,8.10
2016,09,24,07,52,8.10
2016,09,24,07,53,8.10
2016,09,24,07,54,8.10
2016,09,24,07,55,8.10
2016,09,24,07,56,8.10
2016,09,24,07,57,8.20
2016,09,24,07,58,8.20
2016,09,24,07,59,8.20
2016,09,24,08,00,8.20
2016,09,24,08,01,8.20
2016,09,24,08,02,8.20
2016,09,24,08,03,8.30
2016,09,24,08,04,8.30
2016,09,24,08,05,8.30
2016,09,24,08,06,8.30
2016,09,24,08,07,8.30
2016,09,24,08,08,8.40
2016,09,24,08,09,8.40
2016,09,24,08,10,8.40
2016,09,24,08,11,8.50
2016,09,24,08,12,8.50
2016,09,24,08,13,8.50
2016,09,24,08,14,8.60
2016,09,24,08,15,8.60
2016,09,24,08,16,8.60
2016,09,24,08,17,8.60
2016,09,24,08,18,8.60
2016,09,24,08,19,8.70
2016,09,24,08,20,8.70
2016,09,24,08,21,8.70
2016,09,24,08,22,8.70
2016,09,24,08,23,8.80
2016,09,24,08,24,8.80
2016,09,24,08,25,8.80
2016,09,24,08,26,8.90
2016,09,24,08,27,8.90
2016,09,24,08,28,8.90
2016,09,24,08,29,8.90
2016,09,24,08,30,9.00
2016,09,24,08,31,9.00
2016,09,24,08,32,9.10
2016,09,24,08,33,9.10
2016,09,24,08,34,9.10
2016,09,24,08,35,9.20
2016,09,24,08,36,9.20
2016,09,24,08,37,9.20
2016,09,24,08,38,9.30
2016,09,24,08,39,9.30
2016,09,24,08,40,9.40
2016,09,24,08,41,9.50
2016,09,24,08,42,9.50
2016,09,24,08,43,9.60
2016,09,24,08,44,9.60
2016,09,24,08,45,9.60
2016,09,24,08,46,9.60
2016,09,24,08,47,9.60
2016,09,24,08,48,9.60
2016,09,24,08,49,9.70
2016,09,24,08,50,9.70
2016,09,24,08,51,9.70
2016,09,24,08,52,9.70
2016,09,24,08,53,9.70
2016,09,24,08,54,9.80
2016,09,24,08,55,9.80
2016,09,24,08,56,9.80
2016,09,24,08,57,9.90
2016,09,24,08,58,9.90
2016,09,24,08,59,10.00
2016,09,24,09,00,10.00
2016,09,24,09,01,10.00
2016,09,24,09,02,10.10
2016,09,24,09,03,10.10
2016,09,24,09,04,10.20
2016,09,24,09,05,10.20
2016,09,24,09,06,10.20
2016,09,24,09,07,10.30
2016,09,24,09,08,10.30
2016,09,24,09,09,10.30
2016,09,24,09,10,10.40
2016,09,24,09,11,10.50
2016,09,24,09,12,10.50
2016,09,24,09,13,10.60
2016,09,24,09,14,10.60
2016,09,24,09,15,10.70
2016,09,24,09,16,10.70
2016,09,24,09,17,10.80
2016,09,24,09,18,10.80
2016,09,24,09,19,10.80
2016,09,24,09,20,10.90
2016,09,24,09,21,11.00
2016,09,24,09,22,11.00
2016,09,24,09,23,11.00
2016,09,24,09,24,11.10
2016,09,24,09,25,11.10
2016,09,24,09,26,11.10
2016,09,24,09,27,11.10
2016,09,24,09,28,11.10
2016,09,24,09,29,11.20
2016,09,24,09,30,11.20
2016,09,24,09,31,11.20
2016,09,24,09,32,11.20
2016,09,24,09,33,11.20
2016,09,24,09,34,11.30
2016,09,24,09,35,11.30
2016,09,24,09,36,11.30
2016,09,24,09,37,11.30
2016,09,24,09,38,11.30
2016,09,24,09,39,11.30
2016,09,24,09,40,11.30
2016,09,24,09,41,11.40
2016,09,24,09,42,11.40
2016,09,24,09,43,11.50
2016,09,24,09,44,11.50
2016,09,24,09,45,11.60
2016,09,24,09,46,11.60
2016,09,24,09,47,11.70
2016,09,24,09,48,11.70
2016,09,24,09,49,11.80
2016,09,24,09,50,11.80
2016,09,24,09,51,11.80
2016,09,24,09,52,11.90
2016,09,24,09,53,11.90
2016,09,24,09,54,11.90
2016,09,24,09,55,12.00
2016,09,24,09,56,12.00
2016,09,24,09,57,12.00
2016,09,24,09,58,12.00
2016,09,24,09,59,12.10
2016,09,24,10,00,12.10
2016,09,24,10,01,12.10
2016,09,24,10,02,12.20
2016,09,24,10,03,12.20
2016,09,24,10,04,12.20
2016,09,24,10,05,12.30
2016,09,24,10,06,12.30
2016,09,24,10,07,12.30
2016,09,24,10,08,12.40
2016,09,24,10,09,12.40
2016,09,24,10,10,12.40
2016,09,24,10,11,12.50
2016,09,24,10,12,12.50
2016,09,24,10,13,12.50
2016,09,24,10,14,12.60
2016,09,24,10,15,12.60
2016,09,24,10,16,12.60
2016,09,24,10,17,12.60
2016,09,24,10,18,12.70
2016,09,24,10,19,12.70
2016,09,24,10,20,12.70
2016,09,24,10,21,12.70
2016,09,24,10,22,12.70
2016,09,24,10,23,12.70
2016,09,24,10,24,12.70
2016,09,24,10,25,12.70
2016,09,24,10,26,12.70
2016,09,24,10,27,12.70
2016,09,24,10,28,12.80
2016,09,24,10,29,12.80
2016,09,24,10,30,12.80
2016,09,24,10,31,12.80
2016,09,24,10,32,12.80
2016,09,24,10,33,12.80
2016,09,24,10,34,12.80
2016,09,24,10,35,12.80
2016,09,24,10,36,12.80
2016,09,24,10,37,12.80
2016,09,24,10,38,12.80
2016,09,24,10,39,12.80
2016,09,24,10,40,12.80
2016,09,24,10,41,12.80
2016,09,24,10,42,12.90
2016,09,24,10,43,12.90
2016,09,24,10,44,12.90
2016,09,24,10,45,12.90
2016,09,24,10,46,12.90
2016,09,24,10,47,13.00
2016,09,24,10,48,13.00
2016,09,24,10,49,13.10
2016,09,24,10,50,13.10
2016,09,24,10,51,13.10
2016,09,24,10,52,13.10
2016,09,24,10,53,13.00
2016,09,24,10,54,13.00
2016,09,24,10,55,13.00
2016,09,24,10,56,13.00
2016,09,24,10,57,13.00
2016,09,24,10,58,13.00
2016,09,24,10,59,13.00
2016,09,24,11,00,13.00
2016,09,24,11,01,13.00
2016,09,24,11,02,13.00
2016,09,24,11,03,13.00
2016,09,24,11,04,13.00
2016,09,24,11,05,13.00
2016,09,24,11,06,13.00
2016,09,24,11,07,13.10
2016,09,24,11,08,13.10
2016,09,24,11,09,13.10
2016,09,24,11,10,13.10
2016,09,24,11,11,13.10
2016,09,24,11,12,13.10
2016,09,24,11,13,13.10
2016,09,24,11,14,13.10
2016,09,24,11,15,13.10
2016,09,24,11,16,13.10
2016,09,24,11,17,13.20
2016,09,24,11,18,13.20
2016,09,24,11,19,13.20
2016,09,24,11,20,13.30
2016,09,24,11,21,13.30
2016,09,24,11,22,13.30
2016,09,24,11,23,13.30
2016,09,24,11,24,13.30
2016,09,24,11,25,13.30
2016,09,24,11,26,13.30
2016,09,24,11,27,13.30
2016,09,24,11,28,13.40
2016,09,24,11,29,13.40
2016,09,24,11,30,13.50
2016,09,24,11,31,13.50
2016,09,24,11,32,13.50
2016,09,24,11,33,13.60
2016,09,24,11,34,13.60
2016,09,24,11,35,13.70
2016,09,24,11,36,13.70
2016,09,24,11,37,13.70
2016,09,24,11,38,13.80
2016,09,24,11,39,13.80
2016,09,24,11,40,13.90
2016,09,24,11,41,13.90
2016,09,24,11,42,13.90
2016,09,24,11,43,13.90
2016,09,24,11,44,13.90
2016,09,24,11,45,13.90
2016,09,24,11,46,13.90
2016,09,24,11,47,14.00
2016,09,24,11,48,13.90
2016,09,24,11,49,13.90
2016,09,24,11,50,13.90
2016,09,24,11,51,13.90
2016,09,24,11,52,14.00
2016,09,24,11,53,14.00
2016,09,24,11,54,14.00
2016,09,24,11,55,14.00
2016,09,24,11,56,14.10
2016,09,24,11,57,14.10
2016,09,24,11,58,14.10
2016,09,24,11,59,14.10
2016,09,24,12,00,14.10
2016,09,24,12,01,14.10
2016,09,24,12,02,14.10
2016,09,24,12,03,14.10
2016,09,24,12,04,14.10
2016,09,24,12,05,14.10
2016,09,24,12,06,14.20
2016,09,24,12,07,14.20
2016,09,24,12,08,14.20
2016,09,24,12,09,14.20
2016,09,24,12,10,14.20
2016,09,24,12,11,14.20
2016,09,24,12,12,14.20
2016,09,24,12,13,14.20
2016,09,24,12,14,14.20
2016,09,24,12,15,14.20
2016,09,24,12,16,14.20
2016,09,24,12,17,14.20
2016,09,24,12,18,14.20
2016,09,24,12,19,14.20
2016,09,24,12,20,14.20
2016,09,24,12,21,14.20
2016,09,24,12,22,14.20
2016,09,24,12,23,14.20
2016,09,24,12,24,14.20
2016,09,24,12,25,14.20
2016,09,24,12,26,14.20
2016,09,24,12,27,14.20
2016,09,24,12,28,14.20
2016,09,24,12,29,14.20
2016,09,24,12,30,14.30
2016,09,24,12,31,14.30
2016,09,24,12,32,14.30
2016,09,24,12,33,14.30
2016,09,24,12,34,14.30
2016,09,24,12,35,14.40
2016,09,24,12,36,14.40
2016,09,24,12,37,14.50
2016,09,24,12,38,14.50
2016,09,24,12,39,14.60
2016,09,24,12,40,14.60
2016,09,24,12,41,14.60
2016,09,24,12,42,14.50
2016,09,24,12,43,14.50
2016,09,24,12,44,14.50
2016,09,24,12,45,14.50
2016,09,24,12,46,14.50
2016,09,24,12,47,14.40
2016,09,24,12,48,14.40
2016,09,24,12,49,14.40
2016,09,24,12,50,14.40
2016,09,24,12,51,14.30
2016,09,24,12,52,14.30
2016,09,24,12,53,14.30
2016,09,24,12,54,14.30
2016,09,24,12,55,14.30
2016,09,24,12,56,14.40
2016,09,24,12,57,14.40
2016,09,24,12,58,14.40
2016,09,24,12,59,14.40
2016,09,24,13,00,14.40
2016,09,24,13,01,14.40
2016,09,24,13,02,14.50
2016,09,24,13,03,14.50
2016,09,24,13,04,14.50
2016,09,24,13,05,14.60
2016,09,24,13,06,14.60
2016,09,24,13,07,14.70
2016,09,24,13,08,14.70
2016,09,24,13,09,14.70
2016,09,24,13,10,14.80
2016,09,24,13,11,14.80
2016,09,24,13,12,14.80
2016,09,24,13,13,14.80
2016,09,24,13,14,14.70
2016,09,24,13,15,14.70
2016,09,24,13,16,14.70
2016,09,24,13,17,14.60
2016,09,24,13,18,14.60
2016,09,24,13,19,14.50
2016,09,24,13,20,14.50
2016,09,24,13,21,14.50
2016,09,24,13,22,14.60
2016,09,24,13,23,14.60
2016,09,24,13,24,14.60
2016,09,24,13,25,14.70
2016,09,24,13,26,14.70
2016,09,24,13,27,14.70
2016,09,24,13,28,14.70
2016,09,24,13,29,14.70
2016,09,24,13,30,14.70
2016,09,24,13,31,14.70
2016,09,24,13,32,14.70
2016,09,24,13,33,14.80
2016,09,24,13,34,14.90
2016,09,24,13,35,14.90
2016,09,24,13,36,14.90
2016,09,24,13,37,14.90
2016,09,24,13,38,14.90
2016,09,24,13,39,14.90
2016,09,24,13,40,14.90
2016,09,24,13,41,15.00
2016,09,24,13,42,15.00
2016,09,24,13,43,15.00
2016,09,24,13,44,15.00
2016,09,24,13,45,15.00
2016,09,24,13,46,15.00
2016,09,24,13,47,15.00
2016,09,24,13,48,15.00
2016,09,24,13,49,14.90
2016,09,24,13,50,14.90
2016,09,24,13,51,14.90
2016,09,24,13,52,15.00
2016,09,24,13,53,15.00
2016,09,24,13,54,15.00
2016,09,24,13,55,15.00
2016,09,24,13,56,15.00
2016,09,24,13,57,15.00
2016,09,24,13,58,15.00
2016,09,24,13,59,15.00
2016,09,24,14,00,15.00
2016,09,24,14,01,14.90
2016,09,24,14,02,14.90
2016,09,24,14,03,14.90
2016,09,24,14,04,14.90
2016,09,24,14,05,14.90
2016,09,24,14,06,14.80
2016,09,24,14,07,14.90
2016,09,24,14,08,14.80
2016,09,24,14,09,14.80
2016,09,24,14,10,14.80
2016,09,24,14,11,14.80
2016,09,24,14,12,14.80
2016,09,24,14,13,14.80
2016,09,24,14,14,14.80
2016,09,24,14,15,14.80
2016,09,24,14,16,14.80
2016,09,24,14,17,14.80
2016,09,24,14,18,14.80
2016,09,24,14,19,14.80
2016,09,24,14,20,14.80
2016,09,24,14,21,14.80
2016,09,24,14,22,14.80
2016,09,24,14,23,14.90
2016,09,24,14,24,14.90
2016,09,24,14,25,14.90
2016,09,24,14,26,14.80
2016,09,24,14,27,14.80
2016,09,24,14,28,14.90
2016,09,24,14,29,14.90
2016,09,24,14,30,15.00
2016,09,24,14,31,15.00
2016,09,24,14,32,15.00
2016,09,24,14,33,15.00
2016,09,24,14,34,14.90
2016,09,24,14,35,15.00
2016,09,24,14,36,15.00
2016,09,24,14,37,15.00
2016,09,24,14,38,15.00
2016,09,24,14,39,15.00
2016,09,24,14,40,15.00
2016,09,24,14,41,15.00
2016,09,24,14,42,15.00
2016,09,24,14,43,15.00
2016,09,24,14,44,15.10
2016,09,24,14,45,15.10
2016,09,24,14,46,15.20
2016,09,24,14,47,15.10
2016,09,24,14,48,15.10
2016,09,24,14,49,15.10
2016,09,24,14,50,15.10
2016,09,24,14,51,15.10
2016,09,24,14,52,15.10
2016,09,24,14,53,15.00
2016,09,24,14,54,15.00
2016,09,24,14,55,15.00
2016,09,24,14,56,15.00
2016,09,24,14,57,15.00
2016,09,24,14,58,15.00
2016,09,24,14,59,15.00
2016,09,24,15,00,15.00
2016,09,24,15,01,15.00
2016,09,24,15,02,15.00
2016,09,24,15,03,15.00
2016,09,24,15,04,15.00
2016,09,24,15,05,15.00
2016,09,24,15,06,15.00
2016,09,24,15,07,15.00
2016,09,24,15,08,15.00
2016,09,24,15,09,15.00
2016,09,24,15,10,15.00
2016,09,24,15,11,15.00
2016,09,24,15,12,15.00
2016,09,24,15,13,15.00
2016,09,24,15,14,15.10
2016,09,24,15,15,15.20
2016,09,24,15,16,15.20
2016,09,24,15,17,15.20
2016,09,24,15,18,15.30
2016,09,24,15,19,15.30
2016,09,24,15,20,15.30
2016,09,24,15,21,15.30
2016,09,24,15,22,15.30
2016,09,24,15,23,15.20
2016,09,24,15,24,15.20
2016,09,24,15,25,15.20
2016,09,24,15,26,15.10
2016,09,24,15,27,15.00
2016,09,24,15,28,15.00
2016,09,24,15,29,15.00
2016,09,24,15,30,15.00
2016,09,24,15,31,15.00
2016,09,24,15,32,15.00
2016,09,24,15,33,15.00
2016,09,24,15,34,15.00
2016,09,24,15,35,14.90
2016,09,24,15,36,14.90
2016,09,24,15,37,14.80
2016,09,24,15,38,14.80
2016,09,24,15,39,14.80
2016,09,24,15,40,14.80
2016,09,24,15,41,14.70
2016,09,24,15,42,14.70
2016,09,24,15,43,14.70
2016,09,24,15,44,14.70
2016,09,24,15,45,14.70
2016,09,24,15,46,14.70
2016,09,24,15,47,14.70
2016,09,24,15,48,14.70
2016,09,24,15,49,14.70
2016,09,24,15,50,14.70
2016,09,24,15,51,14.70
2016,09,24,15,52,14.70
2016,09,24,15,53,14.70
2016,09,24,15,54,14.70
2016,09,24,15,55,14.70
2016,09,24,15,56,14.70
2016,09,24,15,57,14.70
2016,09,24,15,58,14.70
2016,09,24,15,59,14.70
2016,09,24,16,00,14.70
2016,09,24,16,01,14.70
2016,09,24,16,02,14.70
2016,09,24,16,03,14.70
2016,09,24,16,04,14.70
2016,09,24,16,05,14.60
2016,09,24,16,06,14.60
2016,09,24,16,07,14.60
2016,09,24,16,08,14.60
2016,09,24,16,09,14.60
2016,09,24,16,10,14.50
2016,09,24,16,11,14.50
2016,09,24,16,12,14.40
2016,09,24,16,13,14.40
2016,09,24,16,14,14.30
2016,09,24,16,15,14.30
2016,09,24,16,16,14.30
2016,09,24,16,17,14.30
2016,09,24,16,18,14.20
2016,09,24,16,19,14.20
2016,09,24,16,20,14.20
2016,09,24,16,21,14.10
2016,09,24,16,22,14.10
2016,09,24,16,23,14.10
2016,09,24,16,24,14.10
2016,09,24,16,25,14.10
2016,09,24,16,26,14.10
2016,09,24,16,27,14.00
2016,09,24,16,28,14.00
2016,09,24,16,29,14.00
2016,09,24,16,30,14.00
2016,09,24,16,31,14.00
2016,09,24,16,32,14.00
2016,09,24,16,33,14.00
2016,09,24,16,34,14.00
2016,09,24,16,35,14.00
2016,09,24,16,36,14.00
2016,09,24,16,37,14.10
2016,09,24,16,38,14.10
2016,09,24,16,39,14.10
2016,09,24,16,40,14.10
2016,09,24,16,41,14.20
2016,09,24,16,42,14.20
2016,09,24,16,43,14.20
2016,09,24,16,44,14.20
2016,09,24,16,45,14.20
2016,09,24,16,46,14.20
2016,09,24,16,47,14.20
2016,09,24,16,48,14.20
2016,09,24,16,49,14.30
2016,09,24,16,50,14.30
2016,09,24,16,51,14.30
2016,09,24,16,52,14.30
2016,09,24,16,53,14.30
2016,09,24,16,54,14.30
2016,09,24,16,55,14.30
2016,09,24,16,56,14.40
2016,09,24,16,57,14.40
2016,09,24,16,58,14.40
2016,09,24,16,59,14.40
2016,09,24,17,00,14.40
2016,09,24,17,01,14.40
2016,09,24,17,02,14.40
2016,09,24,17,03,14.40
2016,09,24,17,04,14.30
2016,09,24,17,05,14.30
2016,09,24,17,06,14.30
2016,09,24,17,07,14.30
2016,09,24,17,08,14.30
2016,09,24,17,09,14.30
2016,09,24,17,10,14.30
2016,09,24,17,11,14.30
2016,09,24,17,12,14.20
2016,09,24,17,13,14.20
2016,09,24,17,14,14.20
2016,09,24,17,15,14.20
2016,09,24,17,16,14.20
2016,09,24,17,17,14.20
2016,09,24,17,18,14.20
2016,09,24,17,19,14.20
2016,09,24,17,20,14.20
2016,09,24,17,21,14.20
2016,09,24,17,22,14.20
2016,09,24,17,23,14.20
2016,09,24,17,24,14.20
2016,09,24,17,25,14.20
2016,09,24,17,26,14.20
2016,09,24,17,27,14.20
2016,09,24,17,28,14.20
2016,09,24,17,29,14.20
2016,09,24,17,30,14.20
2016,09,24,17,31,14.20
2016,09,24,17,32,14.10
2016,09,24,17,33,14.10
2016,09,24,17,34,14.10
2016,09,24,17,35,14.10
2016,09,24,17,36,14.10
2016,09,24,17,37,14.10
2016,09,24,17,38,14.00
2016,09,24,17,39,14.00
2016,09,24,17,40,14.00
2016,09,24,17,41,14.00
2016,09,24,17,42,13.90